Location: Devargunta
(16.7631°N, 80.9077°E)
Time: 15:40:51
(UTC+00:00)

Okean O Rocket - Pass Details

Date: 19 January 2021
Orbit: 622 x 645 km, 98.2° (Epoch: 26 February)

Event Time Altitude Azimuth Distance (km) Brightness Sun altitude
Rises 12:47:40 0° 177° (S) 2,942 5.3 -5.8°
Reaches altitude 10° 12:49:55 10° 182° (S) 2,034 4.5 -6.3°
Maximum altitude 12:54:14 53° 259° (W) 792 2.6 -7.3°
Drops below altitude 10° 12:58:34 10° 336° (NNW) 2,036 4.3 -8.3°
Sets 13:00:49 0° 341° (NNW) 2,944 5.0 -8.8°
